Wind_Speed
21 20 20 21 21 20 21 21 20 21 24 26 28 27 26 27 30 33 35 36 37 36 35 33 31 30 29 27 26 26 26 26 27 27 25 23 24 25 25 25 25 26 27 27
19 19 20 20 19 19 20 20 19 21 23 25 26 25 23 24 26 29 31 34 35 35 35 34 33 31 30 29 27 26 26 27 27 28 26 26 25 26 26 26 27 28 28 29
16 18 19 19 19 19 19 20 20 21 22 23 24 23 21 22 23 25 27 30 32 34 35 34 33 32 31 30 28 27 27 27 27 27 28 27 26 27 28 27 28 28 28 28
16 17 19 19 19 19 19 20 20 21 22 22 22 21 20 20 21 22 24 25 28 31 33 34 33 33 32 30 28 27 26 25 27 28 28 26 26 26 27 28 29 27 27 27
16 17 19 19 18 19 19 20 21 21 22 22 22 22 20 19 20 20 21 22 24 27 30 31 31 31 31 30 28 27 27 27 27 27 26 27 26 25 26 28 29 29 28 27
16 17 18 17 17 19 19 19 20 21 22 22 21 22 21 19 19 19 20 21 22 23 26 28 29 28 29 29 28 28 27 27 26 25 25 25 23 22 25 27 26 27 27 26
16 17 17 17 17 17 18 18 19 20 21 21 21 22 21 20 18 18 20 20 20 21 23 25 26 27 27 26 26 26 25 24 23 23 24 23 21 20 22 22 21 23 25 25
16 15 16 16 17 17 17 18 19 19 20 21 23 21 20 19 18 17 18 18 19 20 20 21 23 24 24 24 25 25 23 22 22 22 22 22 20 20 19 20 20 20 21 22
17 15 15 15 15 15 16 17 19 20 20 20 21 21 20 19 18 18 18 18 19 20 20 20 21 23 23 23 23 23 22 22 22 22 21 21 21 19 18 18 18 18 19 19
16 16 13 13 13 14 14 16 17 18 19 20 20 20 20 20 21 21 21 21 20 21 21 20 21 21 22 21 21 21 21 22 21 21 21 21 20 19 18 18 18 19 20 21
14 14 12 12 12 12 13 14 15 17 18 19 19 19 19 20 21 21 20 19 19 20 22 21 22 22 21 22 22 22 22 21 21 21 22 22 21 21 21 21 21 21 22 23
13 12 11 10 9 10 11 12 13 16 16 17 18 18 17 18 19 19 19 18 18 18 20 21 22 22 22 21 22 22 22 22 22 22 22 23 22 22 22 22 23 23 24 25
11 10 8 7 7 8 10 11 13 15 16 16 16 16 16 17 16 16 17 17 17 16 17 18 19 20 21 21 21 21 22 22 22 23 23 23 23 24 24 25 25 26 27 29
10 9 8 7 6 7 9 11 12 14 14 14 14 14 13 14 13 13 14 15 15 15 15 16 18 19 20 20 21 22 23 23 23 24 24 25 25 25 26 27 27 28 29 30
9 7 6 6 6 7 7 8 10 12 12 13 12 13 13 12 14 13 13 14 14 13 14 15 16 17 19 20 21 22 22 23 23 24 25 25 25 26 27 28 29 29 30 30
7 5 5 4 5 5 6 7 8 9 11 12 12 12 12 12 13 12 12 12 12 12 13 14 16 17 18 19 21 22 22 23 24 24 25 25 26 27 27 28 28 29 29 30
5 4 2 2 2 3 4 6 7 8 8 9 10 10 11 11 10 10 9 10 12 13 14 16 17 18 19 20 20 21 22 23 23 24 24 25 25 26 27 27 27 28 28 28
4 2 2 2 2 3 4 5 6 6 7 8 8 8 8 9 9 9 9 10 11 13 14 15 16 17 18 20 20 21 21 21 21 22 22 23 23 24 24 25 25 25 26 27
4 3 2 2 3 3 3 4 5 6 6 6 7 7 8 8 9 10 10 11 12 14 14 15 16 17 18 19 19 19 19 20 20 21 21 21 22 22 23 23 24 24 25 25
3 2 1 2 3 3 4 4 5 5 6 6 6 6 7 7 9 9 10 12 12 13 13 14 15 16 17 18 18 19 19 19 20 20 20 21 21 21 22 22 22 23 23 23
3 1 1 2 2 3 4 5 5 5 6 6 6 6 6 7 7 8 9 10 11 11 12 13 14 15 16 16 17 18 18 19 19 19 19 20 20 20 20 21 21 21 21 21
3 1 1 2 3 4 5 5 5 6 7 6 6 6 6 6 6 6 6 7 8 9 10 11 12 13 13 14 15 15 16 17 17 18 18 18 18 19 19 19 19 19 18 18
3 2 2 3 4 5 5 5 6 6 7 7 7 6 6 5 5 5 6 6 7 8 9 9 10 11 12 12 13 14 15 15 15 16 16 17 17 17 17 17 17 17 16 16
4 3 3 4 5 6 6 6 6 7 8 7 7 7 6 6 6 5 6 6 7 7 8 9 10 11 11 12 13 14 14 15 15 15 15 15 15 15 15 16 16 15 14 14
5 5 5 6 7 8 8 9 9 9 9 9 8 8 7 7 7 7 6 6 6 7 7 8 9 10 11 11 12 13 13 14 14 15 15 15 14 14 14 14 13 13 13 12
6 6 6 7 8 9 9 10 11 11 11 11 10 10 10 9 9 8 7 7 7 7 7 7 8 8 9 10 11 12 12 13 13 13 13 13 13 12 12 11 11 11 10 10
Wind_Direction
291 286 281 277 273 272 270 266 259 251 248 248 250 253 251 246 243 238 236 234 234 236 237 239 241 244 249 253 256 258 260 260 257 252 253 252 251 249 247 246 243 241 241 241
292 285 282 278 274 273 272 267 258 248 247 248 249 252 251 247 242 239 236 235 233 233 235 239 242 245 251 255 257 257 258 262 263 260 256 256 252 246 246 245 243 243 245 242
295 289 285 279 275 273 270 264 256 246 243 247 249 248 244 241 238 236 235 233 233 232 234 237 241 245 250 254 258 258 260 263 264 262 260 257 255 252 248 247 246 246 246 243
294 288 284 279 274 272 266 260 254 246 240 242 245 245 240 235 234 234 234 233 233 232 233 236 240 244 249 253 256 258 261 264 268 266 267 267 264 257 251 249 245 245 246 247
295 289 283 277 271 268 265 257 251 244 240 242 243 246 240 233 233 233 233 233 234 234 236 238 240 243 246 251 255 257 262 264 267 271 274 274 273 266 255 250 245 243 243 245
298 293 287 277 269 264 261 254 248 242 241 242 242 246 241 236 236 236 235 236 236 236 237 239 241 244 246 249 254 257 261 266 268 272 276 282 276 269 257 251 246 244 241 243
302 296 286 277 267 261 257 250 246 242 240 244 243 247 248 244 242 243 239 239 240 241 241 240 242 246 247 248 252 257 260 266 271 274 276 280 273 268 261 254 248 244 243 245
306 299 287 279 273 264 253 248 245 242 242 244 244 247 249 248 251 252 250 248 247 246 246 242 241 243 247 250 254 258 260 265 269 273 276 279 276 274 269 262 257 254 253 251
307 302 290 280 275 264 251 245 243 241 244 247 247 250 252 256 259 261 262 259 255 253 251 247 244 245 249 252 255 258 263 266 268 273 275 276 277 278 273 269 265 265 264 266
304 302 294 282 271 262 248 241 241 241 242 248 253 254 255 257 262 265 267 266 263 255 255 254 251 250 251 252 255 257 261 265 268 271 273 276 276 275 272 275 270 271 270 269
301 303 296 281 266 257 247 237 237 240 245 249 257 261 262 264 265 266 268 268 268 263 259 256 254 252 252 253 254 256 260 263 266 266 267 270 270 273 272 273 273 272 271 272
299 301 294 279 264 251 241 234 239 243 246 251 259 263 266 267 264 266 268 269 270 265 259 256 253 251 250 252 255 256 260 262 263 264 265 267 268 270 271 272 272 272 273 276
297 300 297 283 264 249 241 237 242 246 249 254 260 266 266 268 266 267 267 266 268 266 264 257 251 249 249 252 255 258 259 261 262 263 264 265 268 269 271 273 274 274 276 278
293 297 297 287 264 250 244 247 247 248 252 257 262 267 268 270 268 268 264 266 268 266 260 254 251 249 249 252 254 255 257 259 260 263 265 268 269 270 272 274 276 276 277 279
291 293 290 273 258 249 245 248 250 253 257 258 263 267 268 269 269 268 265 267 269 264 254 250 248 247 246 249 254 257 259 261 262 264 266 270 272 273 274 275 276 278 280 280
286 289 291 276 262 256 257 260 258 261 261 259 262 269 272 273 272 270 268 265 261 256 252 253 254 254 252 253 257 261 264 265 266 268 270 271 272 274 275 276 278 280 280 281
276 293 300 302 288 277 275 275 272 272 272 265 268 274 274 274 271 266 263 258 256 254 256 257 258 258 258 260 262 264 266 267 269 270 270 271 273 275 277 279 280 281 283 284
254 273 303 314 296 285 298 287 282 283 286 281 276 277 273 271 269 269 270 269 261 257 258 260 260 260 262 264 266 267 268 269 271 271 273 275 277 279 280 281 282 283 284 285
235 249 269 282 288 298 311 309 305 304 307 302 293 287 279 274 271 268 268 268 262 258 260 264 263 264 266 267 268 269 271 272 274 275 276 277 278 280 282 283 284 285 285 286
227 238 280 311 310 314 327 329 323 321 326 322 308 299 292 286 281 276 271 270 269 267 266 267 267 268 269 270 271 273 274 275 276 276 277 279 280 282 284 285 286 287 288 289
212 221 320 351 357 1 358 354 342 337 336 334 329 322 313 305 292 280 273 269 271 272 269 270 272 274 274 275 275 276 277 277 277 277 278 280 281 283 284 285 287 289 291 293
190 159 84 40 28 13 8 4 358 354 353 354 348 337 325 316 306 300 287 277 279 279 276 276 281 282 282 281 279 279 279 278 277 278 280 281 282 283 285 286 288 289 292 294
173 128 75 48 38 27 20 16 10 5 4 7 8 1 349 338 328 319 311 299 292 290 287 288 288 287 284 282 282 284 283 283 283 284 286 287 287 286 285 286 288 290 293 294
147 117 81 63 53 44 36 29 25 19 19 20 17 12 6 357 347 340 333 321 312 303 297 293 291 289 286 284 286 286 287 285 285 286 288 289 288 288 287 287 288 289 291 293
132 110 87 71 60 52 46 39 36 36 35 33 29 26 24 17 10 1 353 345 337 327 316 308 301 297 294 293 293 292 291 288 288 288 289 289 290 291 289 288 288 289 291 293
129 107 87 75 65 57 51 48 46 44 43 41 39 37 34 30 24 18 13 7 358 346 334 324 317 310 306 304 301 298 296 294 293 290 289 289 289 292 292 291 291 292 292 293
Height
5775 5774 5773 5771 5771 5771 5770 5771 5771 5772 5772 5772 5773 5775 5778 5779 5781 5785 5788 5793 5797 5803 5807 5811 5814 5817 5818 5819 5821 5822 5823 5823 5823 5823 5824 5824 5826 5828 5829 5830 5832 5834 5835 5836
5771 5770 5768 5767 5767 5766 5766 5767 5767 5768 5768 5768 5769 5771 5773 5775 5776 5779 5782 5787 5792 5796 5800 5804 5808 5811 5812 5814 5815 5816 5817 5817 5817 5817 5817 5818 5819 5820 5822 5823 5826 5828 5829 5830
5767 5766 5764 5763 5763 5763 5762 5763 5763 5764 5765 5765 5766 5768 5769 5771 5772 5775 5777 5781 5786 5790 5794 5798 5801 5804 5806 5808 5809 5810 5811 5812 5812 5811 5812 5812 5813 5814 5815 5817 5820 5822 5823 5824
5763 5761 5760 5759 5759 5758 5759 5759 5759 5760 5761 5762 5764 5765 5766 5767 5770 5772 5774 5777 5780 5784 5788 5792 5795 5798 5800 5802 5804 5805 5805 5806 5807 5806 5806 5807 5807 5808 5809 5811 5813 5815 5817 5818
5759 5757 5756 5755 5755 5754 5755 5755 5755 5757 5758 5759 5761 5762 5764 5765 5767 5769 5771 5773 5776 5779 5782 5785 5789 5792 5794 5796 5798 5799 5800 5801 5801 5802 5802 5802 5801 5802 5802 5804 5806 5808 5810 5813
5755 5753 5751 5751 5751 5750 5750 5751 5752 5753 5755 5757 5758 5759 5761 5762 5764 5766 5768 5770 5772 5774 5777 5780 5783 5786 5789 5791 5792 5794 5794 5795 5795 5796 5797 5796 5796 5796 5797 5798 5800 5802 5805 5807
5752 5750 5747 5746 5746 5746 5747 5748 5749 5750 5752 5753 5755 5756 5758 5759 5761 5762 5764 5766 5768 5770 5772 5775 5777 5780 5783 5785 5786 5788 5788 5789 5789 5790 5791 5791 5792 5792 5792 5792 5794 5796 5798 5801
5747 5746 5744 5742 5742 5742 5742 5744 5746 5748 5749 5750 5751 5752 5755 5756 5757 5759 5760 5762 5764 5766 5768 5770 5772 5774 5776 5778 5780 5781 5782 5783 5784 5786 5787 5787 5787 5787 5788 5789 5790 5791 5793 5794
5743 5742 5740 5738 5738 5738 5739 5740 5742 5744 5745 5747 5748 5749 5751 5753 5754 5756 5757 5758 5760 5761 5763 5764 5766 5768 5770 5772 5773 5775 5777 5778 5779 5780 5781 5781 5782 5783 5783 5784 5785 5786 5787 5789
5740 5739 5737 5735 5735 5735 5736 5737 5739 5741 5742 5743 5745 5746 5749 5750 5751 5752 5753 5754 5755 5756 5758 5759 5761 5763 5765 5766 5768 5769 5771 5773 5773 5775 5776 5777 5777 5778 5779 5779 5780 5781 5782 5783
5738 5736 5735 5733 5732 5732 5733 5735 5736 5738 5739 5741 5742 5745 5745 5746 5747 5748 5749 5750 5750 5751 5752 5754 5755 5757 5759 5761 5762 5764 5765 5767 5768 5769 5770 5771 5772 5773 5774 5774 5775 5775 5776 5777
5735 5734 5732 5731 5730 5730 5731 5732 5734 5736 5737 5738 5739 5743 5741 5741 5742 5743 5744 5744 5745 5745 5746 5747 5749 5751 5753 5755 5757 5758 5759 5760 5762 5763 5764 5765 5766 5766 5767 5768 5768 5769 5769 5769
5734 5732 5731 5730 5731 5730 5729 5730 5731 5733 5734 5735 5736 5740 5737 5737 5737 5738 5739 5739 5740 5740 5741 5742 5743 5745 5747 5748 5750 5752 5753 5754 5756 5756 5757 5758 5759 5760 5760 5761 5761 5761 5761 5761
5732 5730 5730 5729 5728 5727 5727 5728 5729 5730 5731 5732 5733 5734 5734 5734 5734 5734 5734 5735 5735 5735 5736 5737 5738 5739 5741 5742 5744 5746 5747 5748 5749 5750 5751 5751 5752 5752 5753 5753 5753 5753 5753 5752
5730 5729 5728 5727 5726 5726 5726 5727 5727 5728 5728 5729 5730 5730 5730 5730 5730 5730 5730 5731 5731 5731 5731 5732 5733 5734 5735 5737 5738 5740 5740 5741 5742 5743 5743 5744 5744 5744 5745 5745 5745 5744 5743 5742
5729 5728 5727 5726 5725 5725 5725 5725 5725 5725 5725 5725 5726 5727 5726 5726 5726 5726 5726 5726 5727 5727 5727 5728 5729 5729 5730 5731 5732 5733 5734 5735 5735 5736 5736 5737 5737 5737 5736 5736 5736 5735 5734 5734
5727 5727 5726 5726 5725 5725 5725 5724 5724 5723 5723 5723 5723 5724 5723 5722 5722 5722 5722 5722 5723 5723 5723 5724 5724 5725 5725 5726 5726 5727 5728 5728 5728 5729 5729 5729 5729 5729 5728 5728 5727 5726 5726 5725
5727 5726 5726 5725 5725 5724 5726 5723 5722 5722 5721 5720 5720 5720 5719 5719 5719 5719 5719 5719 5719 5719 5719 5719 5720 5720 5720 5721 5721 5721 5722 5722 5722 5722 5722 5722 5722 5721 5721 5720 5719 5718 5718 5717
5726 5726 5725 5725 5724 5724 5724 5722 5721 5720 5719 5718 5717 5716 5716 5716 5715 5715 5715 5715 5715 5715 5715 5715 5715 5715 5715 5716 5716 5716 5716 5716 5716 5716 5716 5715 5715 5714 5714 5713 5712 5712 5711 5709
5726 5725 5725 5724 5723 5723 5724 5721 5719 5719 5717 5716 5714 5713 5713 5713 5713 5713 5712 5711 5711 5710 5710 5710 5710 5710 5710 5710 5711 5711 5711 5710 5710 5710 5710 5709 5709 5708 5707 5707 5706 5705 5704 5702
5725 5725 5724 5724 5723 5722 5722 5720 5719 5719 5718 5714 5712 5711 5710 5710 5710 5709 5708 5707 5707 5707 5707 5706 5706 5706 5706 5705 5705 5705 5705 5705 5704 5704 5704 5704 5703 5702 5702 5701 5700 5699 5697 5696
5725 5725 5724 5723 5722 5724 5720 5719 5718 5717 5714 5712 5711 5709 5708 5707 5706 5705 5705 5704 5704 5703 5703 5702 5702 5702 5701 5701 5701 5700 5700 5699 5699 5699 5698 5698 5697 5697 5696 5695 5694 5693 5692 5691
5724 5725 5724 5724 5724 5722 5720 5718 5717 5715 5713 5711 5710 5708 5707 5706 5704 5704 5703 5702 5701 5701 5700 5699 5699 5698 5698 5697 5697 5696 5696 5695 5694 5694 5693 5692 5692 5691 5690 5689 5689 5688 5687 5685
5724 5724 5724 5723 5722 5721 5719 5718 5716 5715 5713 5711 5709 5708 5706 5705 5704 5702 5701 5700 5699 5698 5697 5697 5696 5695 5694 5694 5693 5692 5691 5690 5689 5689 5688 5688 5687 5686 5685 5684 5684 5683 5682 5681
5725 5724 5724 5723 5722 5721 5720 5718 5716 5715 5713 5711 5709 5708 5706 5705 5703 5702 5700 5699 5698 5697 5695 5694 5693 5692 5691 5690 5689 5688 5687 5686 5685 5684 5683 5683 5682 5681 5680 5680 5679 5678 5677 5677
5725 5725 5725 5724 5723 5722 5721 5719 5718 5716 5714 5712 5710 5709 5707 5705 5704 5702 5700 5699 5697 5696 5694 5692 5691 5690 5688 5687 5685 5684 5683 5681 5680 5679 5679 5678 5677 5677 5676 5675 5675 5674 5674 5673